Regional Weather Roundup
Issued by NWS

Home | Current Version | Previous Version | Graphics & Text | Print | Product List | Glossary On
Versions: 1 2 3 4 5 6 7 8 9 10 11 12 13 14 15 16 17 18 19 20 21 22 23 24 25 26 27 28 29 30 31 32 33 34 35 36 37 38 39 40 41 42 43 44 45 46 47 48 49 50
674
ASUS43 KBIS 241431
RWRND
NORTH DAKOTA REGIONAL WEATHER ROUNDUP
NATIONAL WEATHER SERVICE EASTERN NORTH DAKOTA/GRAND FORKS ND
900 AM CDT SAT JUN 24 2017

  NOTE: "FAIR" INDICATES FEW OR NO CLOUDS BELOW 12,000 FEET WITH NO
  SIGNIFICANT WEATHER AND/OR OBSTRUCTIONS TO VISIBILITY.

NDZ001>003-009>011-017-241500-
...NORTHWEST NORTH DAKOTA...

CITY           SKY/WX    TMP DP  RH WIND       PRES   REMARKS
WILLISTON      FAIR      52  38  58 N18G28    30.26R
MINOT          FAIR      50  40  68 NW16      30.15R
MINOT AFB      CLOUDY    50  39  66 NW21G28   30.15R
$$

NDZ018>021-031>035-040>046-241500-
...SOUTHWEST NORTH DAKOTA...

CITY           SKY/WX    TMP DP  RH WIND       PRES   REMARKS
BISMARCK       FAIR      55  40  56 NW17G26   30.16R
DICKINSON      FAIR      52  33  48 NW17G25   30.21R
GARRISON         N/A     47  39  74 NW23G30   30.17R
HETTINGER      FAIR      56  32  40 NW18      30.24R
$$

NDZ004>008-012>016-024-026-027-054-241500-
...NORTHEAST NORTH DAKOTA...

CITY           SKY/WX    TMP DP  RH WIND       PRES   REMARKS
GRAND FORKS    PTSUNNY   56  47  71 NW16G24   30.00R
GRAND FORKS AF FAIR      55  46  73 NW14G20   30.00S
DEVILS LAKE    PTSUNNY   51  42  71 NW22      30.06R
$$

NDZ022-023-025-028>030-036>039-047>053-241500-
...SOUTHEAST NORTH DAKOTA...

CITY           SKY/WX    TMP DP  RH WIND       PRES   REMARKS
JAMESTOWN      FAIR      53  43  68 NW21G26   30.07R
FARGO          LGT RAIN  52  48  86 NW15      30.02R
WAHPETON       FAIR      55  41  58 NW15G22   30.04S
$$




USA.gov is the U.S. government's official web portal to all federal, state and local government web resources and services.